Location: Auttagershofen
(48.1940°N, 10.0237°E)
Time: 09:34:53
(UTC+00:00)

Helios 1A Rocket - Pass Details

Date: 18 January 2026
Orbit: 425 x 435 km, 98.3° (Epoch: 16 February)

Event Time Altitude Azimuth Distance (km) Brightness Sun altitude
Rises 05:26:50 0° 176° (S) 2,439 6.4 -15.7°
Reaches altitude 10° 05:28:53 10° 181° (S) 1,573 5.3 -15.4°
Maximum altitude 05:32:10 51° 259° (WSW) 576 2.5 -14.8°
Enters shadow 05:34:19 20° 329° (NNW) 1,118 4.0 -14.5°
